| time (UTC) | temp C | wind direction | speed KPH | gust KPH | rain 1hr cm | rain 24hr cm | rain mn cm | humidity % | barometer mb |
| 20260507191540 | 19 | 235 | 0.0 | 0.0 | 0.00 | 0.79 | 0.69 | 33 | 1004.3 |
| 20260507190042 | 19 | 312 | 0.0 | 0.0 | 0.00 | 0.79 | 0.69 | 33 | 1004.5 |
| 20260507184537 | 18 | 294 | 0.0 | 0.0 | 0.00 | 0.79 | 0.69 | 37 | 1004.7 |
| 20260507183042 | 18 | 304 | 0.0 | 0.0 | 0.00 | 0.79 | 0.69 | 38 | 1004.9 |
| 20260507181531 | 18 | 287 | 0.0 | 0.0 | 0.00 | 0.79 | 0.69 | 40 | 1005.1 |
| 20260507180035 | 18 | 236 | 0.0 | 0.0 | 0.00 | 0.79 | 0.69 | 37 | 1005.1 |
| 20260507173103 | 17 | 239 | 0.0 | 0.0 | 0.00 | 0.79 | 0.69 | 40 | 1005.2 |
| 20260507171637 | 17 | 305 | 0.0 | 0.0 | 0.00 | 0.79 | 0.69 | 40 | 1005.4 |
| 20260507170111 | 16 | 324 | 0.0 | 0.0 | 0.00 | 0.79 | 0.69 | 43 | 1005.6 |
| 20260507164512 | 16 | 340 | 0.0 | 0.0 | 0.00 | 0.79 | 0.69 | 51 | 1005.7 |
| 20260507163105 | 16 | 268 | 0.0 | 0.0 | 0.00 | 0.79 | 0.69 | 55 | 1005.7 |
| 20260507161524 | 15 | 289 | 0.0 | 0.0 | 0.00 | 0.79 | 0.69 | 61 | 1005.9 |
| 20260507160016 | 15 | 298 | 0.0 | 0.0 | 0.00 | 0.79 | 0.69 | 62 | 1006.0 |
| 20260507154609 | 14 | 297 | 0.0 | 0.0 | 0.00 | 0.79 | 0.69 | 64 | 1006.1 |
| 20260507153025 | 14 | 248 | 0.0 | 0.0 | 0.00 | 0.79 | 0.69 | 69 | 1006.4 |
| 20260507151612 | 13 | 304 | 0.0 | 0.0 | 0.00 | 0.79 | 0.69 | 71 | 1006.5 |
| 20260507150024 | 13 | 306 | 0.0 | 0.0 | 0.00 | 0.79 | 0.69 | 71 | 1006.6 |
| 20260507144617 | 13 | 249 | 0.0 | 0.0 | 0.00 | 0.79 | 0.69 | 73 | 1006.6 |
| 20260507143039 | 12 | 341 | 0.0 | 0.0 | 0.00 | 0.79 | 0.69 | 77 | 1006.8 |
| 20260507141502 | 12 | 36 | 0.0 | 0.0 | 0.00 | 0.79 | 0.69 | 81 | 1006.9 |
| 20260507140054 | 11 | 324 | 0.0 | 0.0 | 0.00 | 0.79 | 0.69 | 86 | 1007.0 |
| 20260507134546 | 11 | 344 | 0.0 | 0.0 | 0.00 | 0.79 | 0.69 | 92 | 1006.9 |
| 20260507133004 | 10 | 297 | 0.0 | 0.0 | 0.00 | 0.79 | 0.69 | 95 | 1007.1 |
| 20260507131559 | 10 | 299 | 0.0 | 0.0 | 0.00 | 0.79 | 0.69 | 96 | 1006.9 |
| 20260507130021 | 10 | 256 | 0.0 | 0.0 | 0.00 | 0.79 | 0.69 | 96 | 1007.2 |
| 20260507124633 | 9 | 241 | 0.0 | 0.0 | 0.00 | 0.79 | 0.69 | 96 | 1007.1 |
| 20260507123050 | 9 | 347 | 0.0 | 0.0 | 0.03 | 0.79 | 0.69 | 96 | 1007.0 |
| 20260507121511 | 9 | 348 | 0.0 | 0.0 | 0.05 | 0.79 | 0.69 | 96 | 1007.3 |
| 20260507120109 | 9 | 348 | 0.0 | 0.0 | 0.15 | 0.79 | 0.69 | 96 | 1006.9 |
| 20260507114539 | 8 | 348 | 0.0 | 0.0 | 0.23 | 0.79 | 0.69 | 96 | 1007.0 |
| 20260507113005 | 8 | 348 | 0.0 | 0.0 | 0.23 | 0.76 | 0.66 | 96 | 1007.0 |
| 20260507111600 | 8 | 348 | 0.0 | 0.0 | 0.20 | 0.71 | 0.64 | 96 | 1006.5 |
| 20260507110019 | 8 | 348 | 0.0 | 0.0 | 0.10 | 0.64 | 0.53 | 95 | 1006.9 |
| 20260507104613 | 8 | 348 | 0.0 | 0.0 | 0.10 | 0.58 | 0.48 | 95 | 1006.4 |
| 20260507103032 | 8 | 348 | 0.0 | 0.0 | 0.05 | 0.53 | 0.43 | 95 | 1006.6 |
| 20260507101629 | 8 | 348 | 0.0 | 0.0 | 0.05 | 0.53 | 0.43 | 95 | 1006.7 |
| 20260507100053 | 8 | 348 | 0.0 | 0.0 | 0.08 | 0.53 | 0.43 | 95 | 1006.5 |
| 20260507094517 | 8 | 348 | 0.0 | 0.0 | 0.05 | 0.48 | 0.38 | 94 | 1006.6 |
| 20260507093103 | 8 | 348 | 0.0 | 0.0 | 0.08 | 0.48 | 0.38 | 94 | 1006.2 |
| 20260507091525 | 9 | 341 | 0.0 | 0.0 | 0.13 | 0.48 | 0.38 | 94 | 1006.2 |
| 20260507090107 | 9 | 341 | 0.0 | 0.0 | 0.23 | 0.46 | 0.36 | 94 | 1006.4 |
| 20260507084533 | 10 | 342 | 0.0 | 0.0 | 0.25 | 0.43 | 0.33 | 94 | 1005.8 |
| 20260507083125 | 10 | 311 | 0.0 | 0.0 | 0.30 | 0.41 | 0.30 | 94 | 1005.8 |
| 20260507081549 | 11 | 308 | 0.0 | 0.0 | 0.25 | 0.36 | 0.25 | 94 | 1005.5 |
| 20260507080009 | 11 | 304 | 0.0 | 0.0 | 0.13 | 0.23 | 0.13 | 95 | 1006.1 |
| 20260507074636 | 11 | 301 | 0.0 | 0.0 | 0.08 | 0.18 | 0.08 | 95 | 1006.1 |
| 20260507073113 | 11 | 304 | 0.0 | 0.0 | 0.00 | 0.10 | 0.00 | 95 | 1005.6 |
| 20260507071510 | 12 | 237 | 0.0 | 0.0 | 0.00 | 0.10 | 0.00 | 96 | 1004.7 |
| 20260507070059 | 12 | 237 | 0.0 | 0.0 | 0.00 | 0.10 | 0.00 | 97 | 1004.6 |
| 20260507064513 | 12 | 238 | 0.0 | 0.0 | 0.00 | 0.10 | 0.00 | 97 | 1004.9 |
| 20260507063124 | 13 | 238 | 0.0 | 0.0 | 0.00 | 0.10 | 0.00 | 97 | 1004.9 |
| 20260507061532 | 13 | 238 | 0.0 | 0.0 | 0.00 | 0.10 | 0.00 | 97 | 1004.9 |
| 20260507060106 | 13 | 238 | 0.0 | 0.0 | 0.00 | 0.10 | 0.00 | 97 | 1005.0 |
| 20260507054550 | 13 | 237 | 0.0 | 0.0 | 0.00 | 0.10 | 0.00 | 97 | 1005.4 |
| 20260507053010 | 13 | 237 | 0.0 | 0.0 | 0.00 | 0.10 | 0.00 | 97 | 1005.4 |
| 20260507051603 | 13 | 237 | 0.0 | 0.0 | 0.00 | 0.10 | 0.00 | 97 | 1005.4 |
| 20260507050017 | 13 | 237 | 0.0 | 0.0 | 0.00 | 0.10 | 0.00 | 97 | 1005.6 |
| 20260507044507 | 13 | 237 | 0.0 | 0.0 | 0.00 | 0.10 | 0.00 | 97 | 1005.5 |
| 20260507043058 | 13 | 237 | 0.0 | 0.0 | 0.00 | 0.10 | 0.00 | 97 | 1005.5 |
| 20260507041518 | 13 | 237 | 0.0 | 0.0 | 0.00 | 0.10 | 0.00 | 97 | 1005.4 |
| 20260507040109 | 13 | 237 | 0.0 | 0.0 | 0.00 | 0.10 | 0.00 | 97 | 1005.5 |
| 20260507034557 | 13 | 238 | 0.0 | 0.0 | 0.00 | 0.10 | 0.10 | 97 | 1005.5 |
| 20260507033001 | 13 | 207 | 0.0 | 0.0 | 0.00 | 0.10 | 0.10 | 97 | 1005.8 |
| 20260507031553 | 13 | 212 | 0.0 | 0.0 | 0.00 | 0.10 | 0.10 | 97 | 1005.5 |
| 20260507030008 | 13 | 217 | 0.0 | 0.0 | 0.00 | 0.10 | 0.10 | 97 | 1005.4 |
| 20260507024605 | 12 | 232 | 0.0 | 0.0 | 0.00 | 0.10 | 0.10 | 97 | 1005.3 |
| 20260507023011 | 12 | 214 | 0.0 | 0.0 | 0.00 | 0.10 | 0.10 | 97 | 1005.5 |
| 20260507021609 | 13 | 222 | 0.0 | 0.0 | 0.00 | 0.10 | 0.10 | 97 | 1005.2 |
| 20260507020015 | 13 | 247 | 0.0 | 0.0 | 0.00 | 0.10 | 0.10 | 97 | 1005.5 |
| 20260507014507 | 13 | 243 | 0.0 | 0.0 | 0.00 | 0.10 | 0.10 | 97 | 1005.7 |
| 20260507013116 | 13 | 211 | 0.0 | 0.0 | 0.00 | 0.10 | 0.10 | 97 | 1005.9 |
| 20260507011523 | 13 | 271 | 0.0 | 0.0 | 0.03 | 0.10 | 0.10 | 97 | 1005.9 |
| 20260507010110 | 13 | 250 | 0.0 | 0.0 | 0.03 | 0.10 | 0.10 | 96 | 1006.0 |
| 20260507004555 | 12 | 259 | 0.0 | 0.0 | 0.03 | 0.10 | 0.10 | 96 | 1005.9 |
| 20260507003010 | 12 | 206 | 0.0 | 0.0 | 0.05 | 0.10 | 0.10 | 96 | 1005.9 |
| 20260507001612 | 12 | 231 | 0.0 | 0.0 | 0.05 | 0.08 | 0.08 | 96 | 1006.0 |
| 20260507000016 | 12 | 219 | 0.0 | 0.0 | 0.08 | 0.08 | 0.08 | 96 | 1005.9 |
| 20260506234620 | 12 | 211 | 0.0 | 0.0 | 0.08 | 0.08 | 0.08 | 96 | 1005.9 |
| 20260506233043 | 12 | 212 | 0.0 | 0.0 | 0.05 | 0.05 | 0.05 | 95 | 1005.9 |
| 20260506231507 | 12 | 215 | 0.0 | 0.0 | 0.03 | 0.03 | 0.03 | 95 | 1005.9 |
| 20260506230108 | 12 | 234 | 0.0 | 0.0 | 0.00 | 0.00 | 0.00 | 95 | 1005.9 |
| 20260506224535 | 13 | 210 | 0.0 | 0.0 | 0.00 | 0.00 | 0.00 | 95 | 1005.8 |
| 20260506223128 | 13 | 213 | 0.0 | 0.0 | 0.00 | 0.00 | 0.00 | 95 | 1005.8 |
| 20260506221544 | 13 | 223 | 0.0 | 0.0 | 0.00 | 0.00 | 0.00 | 94 | 1006.1 |
| 20260506220012 | 13 | 222 | 0.0 | 0.0 | 0.00 | 0.00 | 0.00 | 93 | 1006.3 |
| 20260506214556 | 13 | 207 | 0.0 | 0.0 | 0.00 | 0.00 | 0.00 | 92 | 1006.3 |
| 20260506213018 | 13 | 221 | 0.0 | 0.0 | 0.00 | 0.00 | 0.00 | 92 | 1006.3 |
| 20260506211608 | 13 | 198 | 0.0 | 0.0 | 0.00 | 0.00 | 0.00 | 92 | 1006.5 |
| 20260506210023 | 14 | 201 | 0.0 | 0.0 | 0.00 | 0.00 | 0.00 | 92 | 1006.5 |
| 20260506204628 | 14 | 207 | 0.0 | 0.0 | 0.00 | 0.00 | 0.00 | 92 | 1006.6 |
| 20260506203049 | 14 | 217 | 0.0 | 0.0 | 0.00 | 0.00 | 0.00 | 91 | 1006.7 |
| 20260506201513 | 15 | 208 | 0.0 | 0.0 | 0.00 | 0.00 | 0.00 | 90 | 1006.8 |
| 20260506200114 | 15 | 195 | 0.0 | 0.0 | 0.00 | 0.00 | 0.00 | 89 | 1006.8 |
| 20260506194552 | 16 | 229 | 0.0 | 0.0 | 0.00 | 0.00 | 0.00 | 86 | 1006.9 |
| 20260506193006 | 16 | 243 | 0.0 | 0.0 | 0.00 | 0.00 | 0.00 | 84 | 1007.1 |